TFL3BM EHAM-GCLP

Flight info

Callsign TFL3BM
Flight time N/A
Altitude 40000
Route IDRID L980 MANGO L620 SAM/N0483F410 M195 LORKU DCT BALDA DCT ABUPI DCT BEXAL DCT SAMAR
Aircraft B788/H-SDE1E2E3FGHIJ2J3J4J5M1RWXY/LB1D1

Departure

Time N/A
Airport Amsterdam Airport Schiphol (EHAM)

Arrival

Time 2026-04-30 19:20
Airport Gran Canaria Airport (GCLP)
Time Latitude Longitude Altitude Speed Heading
2026-04-30 18:56 30.55919 -14.54047 39899 ft 458 kts 205°
2026-04-30 18:56 30.49821 -14.56373 38124 ft 463 kts 204°
2026-04-30 18:57 30.37596 -14.60818 35718 ft 447 kts 205°
2026-04-30 18:57 30.31651 -14.62993 35115 ft 457 kts 204°
2026-04-30 18:57 30.25538 -14.65219 34485 ft 460 kts 204°
2026-04-30 18:58 30.13282 -14.69684 33180 ft 462 kts 204°
2026-04-30 18:58 30.07189 -14.71901 32544 ft 464 kts 204°
2026-04-30 18:58 30.00976 -14.74155 31887 ft 465 kts 204°
2026-04-30 18:59 29.88624 -14.78632 30617 ft 467 kts 204°
2026-04-30 19:00 29.70009 -14.85354 28632 ft 466 kts 203°
2026-04-30 19:00 29.63887 -14.87560 27982 ft 464 kts 203°
2026-04-30 19:00 29.51654 -14.91959 26701 ft 458 kts 203°
2026-04-30 19:01 29.39518 -14.96310 25432 ft 450 kts 203°
2026-04-30 19:01 29.33607 -14.98427 24809 ft 448 kts 202°
2026-04-30 19:02 29.21758 -15.02662 23541 ft 443 kts 202°
2026-04-30 19:02 29.10156 -15.06800 22312 ft 436 kts 202°
2026-04-30 19:03 28.98681 -15.10878 21113 ft 429 kts 202°
2026-04-30 19:03 28.87327 -15.14906 19934 ft 423 kts 201°
2026-04-30 19:04 28.76198 -15.18847 18765 ft 416 kts 201°
2026-04-30 19:04 28.65228 -15.22722 17585 ft 410 kts 201°
2026-04-30 19:05 28.54401 -15.26537 16467 ft 403 kts 200°
2026-04-30 19:05 28.43817 -15.30259 15372 ft 396 kts 200°
2026-04-30 19:06 28.33354 -15.33930 14278 ft 391 kts 200°
2026-04-30 19:06 28.28190 -15.35739 13599 ft 384 kts 200°
2026-04-30 19:06 28.21627 -15.38034 13101 ft 359 kts 198°
2026-04-30 19:07 28.17034 -15.39643 12454 ft 349 kts 200°
2026-04-30 19:07 28.14782 -15.40429 12234 ft 328 kts 199°
2026-04-30 19:08 28.10508 -15.41867 11801 ft 317 kts 193°
2026-04-30 19:08 28.06216 -15.40942 11397 ft 326 kts 150°
2026-04-30 19:08 28.04471 -15.39290 11092 ft 324 kts 139°
2026-04-30 19:09 28.01405 -15.35796 10090 ft 302 kts 137°
2026-04-30 19:09 27.99944 -15.34140 9556 ft 295 kts 137°
2026-04-30 19:09 27.98518 -15.32552 9020 ft 291 kts 137°
2026-04-30 19:10 27.95667 -15.29351 7972 ft 284 kts 137°
2026-04-30 19:10 27.92504 -15.27043 6917 ft 269 kts 179°
2026-04-30 19:11 27.90772 -15.27522 6410 ft 259 kts 210°
2026-04-30 19:11 27.88009 -15.29979 5376 ft 247 kts 222°
2026-04-30 19:11 27.86663 -15.31153 4857 ft 246 kts 212°
2026-04-30 19:12 27.85146 -15.32052 4448 ft 243 kts 207°
2026-04-30 19:12 27.83631 -15.32871 4277 ft 243 kts 207°
2026-04-30 19:12 27.82107 -15.33680 4111 ft 241 kts 207°
2026-04-30 19:13 27.79143 -15.35236 3611 ft 231 kts 206°
2026-04-30 19:13 27.76354 -15.36727 3135 ft 217 kts 206°
2026-04-30 19:13 27.74989 -15.37461 2921 ft 214 kts 206°
2026-04-30 19:14 27.73641 -15.38185 2751 ft 213 kts 207°
2026-04-30 19:14 27.72529 -15.39238 2481 ft 210 kts 242°
2026-04-30 19:14 27.72383 -15.40795 2482 ft 205 kts 281°
2026-04-30 19:14 27.72856 -15.42322 2505 ft 207 kts 291°
2026-04-30 19:15 27.73417 -15.43824 2502 ft 209 kts 297°
2026-04-30 19:15 27.75951 -15.45117 2507 ft 213 kts 351°
2026-04-30 19:15 27.77418 -15.45311 2505 ft 211 kts 356°
2026-04-30 19:16 27.78786 -15.44995 2488 ft 191 kts 18°
2026-04-30 19:16 27.80021 -15.44485 2494 ft 190 kts 19°
2026-04-30 19:16 27.82351 -15.43466 2101 ft 172 kts 21°
2026-04-30 19:17 27.83438 -15.42981 1860 ft 159 kts 21°
2026-04-30 19:17 27.85408 -15.42109 1451 ft 156 kts 22°
2026-04-30 19:17 27.86414 -15.41676 1266 ft 157 kts 19°
2026-04-30 19:18 27.88080 -15.40919 930 ft 154 kts 25°
2026-04-30 19:18 27.89406 -15.40317 674 ft 154 kts 22°
2026-04-30 19:18 27.90407 -15.39879 451 ft 153 kts 22°
2026-04-30 19:19 27.91391 -15.39454 248 ft 150 kts 22°
2026-04-30 19:19 27.92336 -15.39035 89 ft 138 kts 24°
2026-04-30 19:19 27.93536 -15.38504 60 ft 54 kts 21°
2026-04-30 19:20 27.93776 -15.38412 59 ft 28 kts
2026-04-30 19:20 27.93917 -15.38436 64 ft 19 kts 348°
2026-04-30 19:20 27.94067 -15.38555 82 ft 8 kts 291°
2026-04-30 19:21 27.94068 -15.38602 88 ft 4 kts 253°
2026-04-30 19:21 27.94052 -15.38626 89 ft 3 kts 226°
2026-04-30 19:22 27.93979 -15.38668 93 ft 7 kts 205°
2026-04-30 19:22 27.93973 -15.38738 92 ft 4 kts 286°
2026-04-30 19:23 27.93980 -15.38759 92 ft 0 kts 290°